| time (UTC) | temp F | wind direction | speed MPH | gust MPH | rain 1hr in | rain 24hr in | rain mn in | humidity % | barometer mb |
| 20260506113051 | 56 | 82 | 7.0 | 21.0 | 0.00 | 0.00 | 0.00 | 93 | 1011.1 |
| 20260506111526 | 56 | 94 | 4.0 | 19.0 | 0.00 | 0.00 | 0.00 | 94 | 1011.2 |
| 20260506110020 | 56 | 86 | 5.0 | 15.0 | 0.00 | 0.00 | 0.00 | 93 | 1011.1 |
| 20260506104517 | 56 | 60 | 6.0 | 16.0 | 0.00 | 0.00 | 0.00 | 94 | 1011.1 |
| 20260506103016 | 56 | 66 | 7.0 | 17.0 | 0.00 | 0.00 | 0.00 | 94 | 1011.0 |
| 20260506101516 | 55 | 60 | 7.0 | 21.0 | 0.00 | 0.00 | 0.00 | 94 | 1011.1 |
| 20260506100014 | 55 | 79 | 6.0 | 18.0 | 0.00 | 0.00 | 0.00 | 94 | 1010.9 |
| 20260506094543 | 55 | 79 | 4.0 | 18.0 | 0.00 | 0.00 | 0.00 | 94 | 1010.9 |
| 20260506093044 | 56 | 86 | 9.0 | 19.0 | 0.00 | 0.00 | 0.00 | 94 | 1011.0 |
| 20260506091511 | 56 | 88 | 10.0 | 20.0 | 0.00 | 0.00 | 0.00 | 94 | 1010.9 |
| 20260506090009 | 56 | 105 | 7.0 | 25.0 | 0.00 | 0.00 | 0.00 | 94 | 1010.9 |
| 20260506084544 | 56 | 68 | 11.0 | 23.0 | 0.00 | 0.00 | 0.00 | 94 | 1011.0 |
| 20260506083038 | 56 | 110 | 7.0 | 18.0 | 0.00 | 0.00 | 0.00 | 94 | 1011.1 |
| 20260506081530 | 56 | 105 | 8.0 | 18.0 | 0.00 | 0.00 | 0.00 | 93 | 1011.2 |
| 20260506073027 | 56 | 95 | 8.0 | 19.0 | 0.00 | 0.00 | 0.00 | 92 | 1011.7 |
| 20260506071524 | 56 | 96 | 6.0 | 15.0 | 0.00 | 0.00 | 0.00 | 91 | 1011.8 |
| 20260506061515 | 57 | 109 | 10.0 | 21.0 | 0.00 | 0.00 | 0.00 | 91 | 1011.4 |
| 20260506044513 | 58 | 96 | 14.0 | 30.0 | 0.00 | 0.00 | 0.00 | 88 | 1011.5 |
| 20260506043005 | 58 | 109 | 10.0 | 24.0 | 0.00 | 0.00 | 0.00 | 88 | 1011.7 |
| 20260506041506 | 57 | 105 | 9.0 | 19.0 | 0.00 | 0.00 | 0.00 | 89 | 1011.8 |
| 20260506041504 | 57 | 64 | 9.0 | 19.0 | 0.00 | 0.00 | 0.00 | 89 | 1011.8 |
| 20260506040001 | 57 | 107 | 9.0 | 19.0 | 0.00 | 0.00 | 0.00 | 89 | 1011.8 |
| 20260506034603 | 57 | 77 | 9.0 | 22.0 | 0.00 | 0.00 | 0.00 | 89 | 1012.0 |
| 20260506033059 | 57 | 75 | 10.0 | 20.0 | 0.00 | 0.00 | 0.00 | 89 | 1012.0 |
| 20260506031558 | 57 | 117 | 8.0 | 23.0 | 0.00 | 0.00 | 0.00 | 89 | 1011.9 |
| 20260506030057 | 56 | 128 | 6.0 | 15.0 | 0.00 | 0.00 | 0.00 | 89 | 1012.1 |
| 20260506024606 | 57 | 103 | 9.0 | 18.0 | 0.00 | 0.00 | 0.00 | 89 | 1012.0 |
| 20260506023108 | 57 | 104 | 8.0 | 19.0 | 0.00 | 0.00 | 0.00 | 89 | 1012.0 |
| 20260506021553 | 57 | 110 | 7.0 | 19.0 | 0.00 | 0.00 | 0.00 | 89 | 1012.0 |
| 20260506020054 | 57 | 81 | 6.0 | 18.0 | 0.00 | 0.00 | 0.00 | 88 | 1011.9 |
| 20260506014548 | 57 | 65 | 5.0 | 18.0 | 0.00 | 0.00 | 0.00 | 88 | 1011.8 |
| 20260506013054 | 57 | 52 | 9.0 | 21.0 | 0.00 | 0.00 | 0.00 | 87 | 1011.7 |
| 20260506011547 | 57 | 103 | 9.0 | 20.0 | 0.00 | 0.00 | 0.00 | 87 | 1011.5 |
| 20260506010040 | 57 | 40 | 9.0 | 24.0 | 0.00 | 0.00 | 0.00 | 85 | 1011.4 |
| 20260506004539 | 58 | 80 | 11.0 | 28.0 | 0.00 | 0.00 | 0.00 | 84 | 1011.0 |
| 20260506003037 | 58 | 94 | 12.0 | 31.0 | 0.00 | 0.00 | 0.00 | 84 | 1010.7 |
| 20260506001537 | 58 | 53 | 10.0 | 30.0 | 0.00 | 0.00 | 0.00 | 83 | 1010.6 |
| 20260506000034 | 58 | 50 | 15.0 | 26.0 | 0.00 | 0.00 | 0.00 | 84 | 1010.4 |
| 20260505234533 | 58 | 115 | 13.0 | 29.0 | 0.00 | 0.00 | 0.00 | 85 | 1010.1 |
| 20260505233030 | 58 | 77 | 16.0 | 28.0 | 0.00 | 0.00 | 0.00 | 84 | 1009.9 |
| 20260505231529 | 58 | 108 | 16.0 | 26.0 | 0.00 | 0.00 | 0.00 | 84 | 1009.8 |
| 20260505230121 | 58 | 39 | 13.0 | 23.0 | 0.00 | 0.00 | 0.00 | 84 | 1009.8 |
| 20260505224556 | 59 | 94 | 13.0 | 23.0 | 0.00 | 0.00 | 0.00 | 84 | 1009.6 |
| 20260505223057 | 59 | 52 | 15.0 | 29.0 | 0.00 | 0.00 | 0.00 | 83 | 1009.6 |
| 20260505221557 | 59 | 55 | 16.0 | 30.0 | 0.00 | 0.00 | 0.00 | 83 | 1009.4 |
| 20260505220055 | 58 | 103 | 13.0 | 31.0 | 0.00 | 0.00 | 0.00 | 84 | 1009.4 |
| 20260505214548 | 59 | 122 | 15.0 | 27.0 | 0.00 | 0.00 | 0.00 | 83 | 1009.2 |
| 20260505213045 | 59 | 77 | 15.0 | 26.0 | 0.00 | 0.00 | 0.00 | 82 | 1009.0 |
| 20260505211554 | 59 | 106 | 13.0 | 30.0 | 0.00 | 0.00 | 0.00 | 82 | 1009.0 |
| 20260505210041 | 59 | 102 | 15.0 | 29.0 | 0.00 | 0.00 | 0.00 | 82 | 1008.8 |
| 20260505204540 | 60 | 129 | 12.0 | 23.0 | 0.00 | 0.00 | 0.00 | 81 | 1008.9 |
| 20260505203036 | 60 | 44 | 8.0 | 24.0 | 0.00 | 0.00 | 0.00 | 82 | 1009.0 |
| 20260505201533 | 60 | 56 | 11.0 | 26.0 | 0.00 | 0.00 | 0.00 | 81 | 1009.1 |
| 20260505200038 | 60 | 92 | 8.0 | 22.0 | 0.00 | 0.00 | 0.00 | 82 | 1009.3 |
| 20260505194529 | 60 | 136 | 7.0 | 17.0 | 0.00 | 0.00 | 0.00 | 83 | 1009.7 |
| 20260505193024 | 60 | 131 | 5.0 | 17.0 | 0.00 | 0.00 | 0.00 | 83 | 1009.8 |
| 20260505191527 | 59 | 46 | 8.0 | 19.0 | 0.00 | 0.00 | 0.00 | 84 | 1010.1 |
| 20260505190018 | 59 | 98 | 4.0 | 17.0 | 0.00 | 0.00 | 0.00 | 85 | 1010.7 |
| 20260505184515 | 58 | 66 | 7.0 | 19.0 | 0.00 | 0.00 | 0.00 | 85 | 1010.9 |
| 20260505183010 | 58 | 84 | 11.0 | 19.0 | 0.00 | 0.00 | 0.00 | 84 | 1011.1 |
| 20260505181507 | 58 | 72 | 6.0 | 19.0 | 0.00 | 0.00 | 0.00 | 86 | 1011.1 |
| 20260505180005 | 58 | 65 | 10.0 | 20.0 | 0.00 | 0.00 | 0.00 | 85 | 1011.1 |
| 20260505174503 | 58 | 105 | 5.0 | 23.0 | 0.00 | 0.00 | 0.00 | 87 | 1011.1 |
| 20260505173101 | 58 | 58 | 12.0 | 21.0 | 0.00 | 0.00 | 0.00 | 86 | 1011.3 |
| 20260505171601 | 58 | 86 | 9.0 | 19.0 | 0.00 | 0.00 | 0.00 | 87 | 1011.3 |
| 20260505170059 | 57 | 68 | 12.0 | 20.0 | 0.00 | 0.00 | 0.00 | 87 | 1011.3 |
| 20260505164602 | 57 | 75 | 10.0 | 20.0 | 0.00 | 0.00 | 0.00 | 86 | 1011.4 |
| 20260505163103 | 57 | 71 | 7.0 | 18.0 | 0.00 | 0.00 | 0.00 | 86 | 1011.7 |
| 20260505161608 | 58 | 79 | 5.0 | 12.0 | 0.00 | 0.00 | 0.00 | 87 | 1011.9 |
| 20260505153056 | 58 | 70 | 4.0 | 14.0 | 0.00 | 0.00 | 0.00 | 88 | 1012.1 |
| 20260505153054 | 58 | 68 | 4.0 | 14.0 | 0.00 | 0.00 | 0.00 | 88 | 1012.1 |
| 20260505151522 | 57 | 87 | 9.0 | 20.0 | 0.00 | 0.00 | 0.00 | 87 | 1012.3 |
| 20260505124548 | 56 | 118 | 4.0 | 12.0 | 0.00 | 0.00 | 0.00 | 92 | 1011.8 |
| 20260505123039 | 55 | 105 | 7.0 | 16.0 | 0.00 | 0.00 | 0.00 | 92 | 1011.9 |
| 20260505121542 | 55 | 85 | 6.0 | 12.0 | 0.00 | 0.00 | 0.00 | 92 | 1012.0 |
| 20260505120036 | 56 | 86 | 5.0 | 15.0 | 0.00 | 0.00 | 0.00 | 91 | 1011.8 |
| 20260505114536 | 56 | 113 | 6.0 | 10.0 | 0.00 | 0.00 | 0.00 | 92 | 1011.8 |